FW6068 Weather Reports


time (UTC)temp
F
wind
direction
speed
knots
gust
knots
rain 1hr
in
rain 24hr
in
rain mn
in
humidity
%
barometer
mb
20260509000105 60 130 0.0 1.7 0.00 0.00 0.00 68 1012.5
20260508234548 61 130 0.0 1.7 0.00 0.00 0.00 66 1012.3
20260508233052 62 130 0.0 0.9 0.00 0.00 0.00 67 1012.3
20260508231550 62 130 0.0 0.9 0.00 0.00 0.00 65 1012.2
20260508230040 62 130 0.0 3.5 0.00 0.00 0.00 63 1012.3
20260508224535 63 130 0.0 5.2 0.00 0.00 0.00 62 1012.1
20260508223037 64 130 0.0 3.5 0.00 0.00 0.00 61 1012.2
20260508221536 64 130 0.0 2.6 0.00 0.00 0.00 61 1012.1
20260508220034 65 130 0.9 2.6 0.00 0.00 0.00 58 1011.9
20260508214535 65 130 0.9 4.3 0.00 0.00 0.00 58 1012.1
20260508213034 65 130 0.0 6.1 0.00 0.00 0.00 59 1012.0
20260508211528 65 130 0.0 3.5 0.00 0.00 0.00 56 1011.7
20260508210032 65 130 0.9 5.2 0.00 0.00 0.00 56 1011.9
20260508204521 65 130 0.9 3.5 0.00 0.00 0.00 56 1012.2
20260508203021 65 130 0.0 3.5 0.00 0.00 0.00 54 1012.3
20260508201525 65 130 0.9 5.2 0.00 0.00 0.00 54 1012.3
20260508200022 66 129 0.0 2.6 0.00 0.00 0.00 55 1012.7
20260508194538 65 130 0.0 3.5 0.00 0.00 0.00 55 1012.8
20260508193022 67 130 0.0 4.3 0.00 0.00 0.00 53 1013.2
20260508191518 67 129 0.0 2.6 0.00 0.00 0.00 51 1013.2
20260508190018 66 130 0.9 5.2 0.00 0.00 0.00 52 1013.6
20260508184519 66 129 0.0 2.6 0.00 0.00 0.00 54 1013.6
20260508183010 66 130 0.9 2.6 0.00 0.00 0.00 49 1013.4
20260508181635 65 130 0.0 4.3 0.00 0.00 0.00 51 1013.8
20260508181502 66 130 0.0 4.3 0.00 0.00 0.00 48 1013.8
20260508180006 66 129 0.0 2.6 0.00 0.00 0.00 47 1013.9
20260508174508 65 130 0.0 4.3 0.00 0.00 0.00 43 1014.4
20260508173007 65 129 0.0 2.6 0.00 0.00 0.00 43 1014.3
20260508171505 65 129 0.0 2.6 0.00 0.00 0.00 39 1014.8
20260508170052 64 130 0.0 4.3 0.00 0.00 0.00 43 1014.8
20260508164538 65 129 0.9 3.5 0.00 0.00 0.00 44 1015.1
20260508163042 65 131 0.0 3.5 0.00 0.00 0.00 48 1015.4
20260508161549 64 131 0.0 0.9 0.00 0.00 0.00 45 1015.5
20260508160040 64 130 0.0 2.6 0.00 0.00 0.00 46 1015.7
20260508154541 63 131 0.0 2.6 0.00 0.00 0.00 48 1015.8
20260508153046 62 131 0.9 3.5 0.00 0.00 0.00 51 1016.0
20260508151545 61 131 0.0 2.6 0.00 0.00 0.00 57 1015.8
20260508150041 60 131 0.9 1.7 0.00 0.00 0.00 57 1016.0
20260508144540 61 131 0.0 1.7 0.00 0.00 0.00 57 1016.1
20260508143046 61 131 0.0 1.7 0.00 0.00 0.00 57 1016.3
20260508141543 60 131 0.0 0.9 0.00 0.00 0.00 63 1016.4
20260508140028 59 131 0.0 1.7 0.00 0.00 0.00 65 1016.4
20260508134524 58 131 0.0 1.7 0.00 0.00 0.00 74 1016.5
20260508133017 55 131 0.0 2.6 0.00 0.00 0.00 78 1016.6
20260508131510 53 131 0.0 1.7 0.00 0.00 0.00 83 1016.6
20260508130010 50 131 0.0 0.9 0.00 0.00 0.00 92 1016.6
20260508124513 46 131 0.0 0.9 0.00 0.00 0.00 94 1016.6
20260508123013 45 131 0.0 0.0 0.00 0.00 0.00 95 1016.4
20260508121515 45 131 0.0 0.9 0.00 0.00 0.00 95 1016.3
20260508120016 45 131 0.0 0.0 0.00 0.00 0.00 95 1016.4
20260508114522 44 131 0.0 0.9 0.00 0.00 0.00 95 1016.1
20260508113023 44 131 0.0 0.0 0.00 0.00 0.00 95 1015.8
20260508111513 44 131 0.0 0.0 0.00 0.00 0.00 95 1015.5
20260508110016 42 131 0.0 0.0 0.00 0.00 0.00 94 1015.2
20260508104521 42 131 0.0 0.0 0.00 0.00 0.00 94 1015.1
20260508103019 42 131 0.0 0.0 0.00 0.00 0.00 94 1014.8
20260508101520 43 131 0.0 0.0 0.00 0.00 0.00 94 1014.5
20260508100026 43 131 0.0 0.0 0.00 0.00 0.00 94 1014.1
20260508094530 43 131 0.0 0.0 0.00 0.00 0.00 93 1013.9
20260508093030 44 131 0.0 0.0 0.00 0.00 0.00 93 1014.0
20260508091534 44 131 0.0 0.0 0.00 0.00 0.00 93 1013.8
20260508090036 45 131 0.0 0.0 0.00 0.00 0.00 93 1013.6
20260508084536 45 131 0.0 0.0 0.00 0.00 0.00 92 1013.6
20260508083020 46 131 0.0 0.0 0.00 0.00 0.00 92 1013.3
20260508081526 46 131 0.0 0.0 0.00 0.00 0.00 93 1013.5
20260508080029 47 131 0.0 0.0 0.00 0.00 0.00 93 1013.1
20260508074533 47 131 0.0 0.0 0.00 0.00 0.00 93 1013.1
20260508073037 47 131 0.0 0.0 0.00 0.00 0.00 92 1012.9
20260508071534 47 131 0.0 0.0 0.00 0.00 0.00 90 1012.8
20260508070045 48 131 0.0 0.0 0.00 0.00 0.00 90 1012.8
20260508064548 48 131 0.0 0.0 0.00 0.00 0.00 90 1012.7
20260508063058 49 131 0.0 0.0 0.00 0.00 0.00 89 1012.6
20260508061502 49 131 0.0 0.0 0.00 0.00 0.00 88 1012.7
20260508060106 50 131 0.0 0.0 0.00 0.00 0.00 89 1012.6
20260508060002 50 131 0.0 0.0 0.00 0.00 0.00 89 1012.6
20260508054506 50 131 0.0 0.0 0.00 0.00 0.00 89 1012.7
20260508053006 50 131 0.0 0.0 0.00 0.00 0.00 88 1012.8
20260508051517 50 131 0.0 0.9 0.00 0.00 0.00 88 1012.8
20260508050010 50 131 0.0 0.0 0.00 0.00 0.00 88 1012.8
20260508044514 50 131 0.0 0.9 0.00 0.00 0.00 87 1012.6
20260508043017 50 131 0.0 0.9 0.00 0.00 0.00 88 1012.6
20260508041520 50 131 0.0 0.0 0.00 0.00 0.00 88 1012.4
20260508040022 50 131 0.0 0.0 0.00 0.00 0.00 89 1012.4
20260508034557 50 131 0.0 0.0 0.00 0.00 0.00 88 1012.5
20260508033056 49 131 0.0 0.0 0.00 0.00 0.00 88 1012.6
20260508031558 49 131 0.0 0.0 0.00 0.00 0.00 89 1012.8
20260508030009 49 131 0.0 0.0 0.00 0.00 0.00 88 1012.7
20260508024511 50 131 0.0 0.0 0.00 0.00 0.00 88 1012.7
20260508023012 50 131 0.0 0.0 0.00 0.00 0.00 87 1012.3
20260508021509 50 131 0.0 0.0 0.00 0.00 0.00 86 1012.1
20260508020014 51 131 0.0 0.0 0.00 0.00 0.00 85 1012.0
20260508014519 51 131 0.0 0.0 0.00 0.00 0.00 84 1011.9
20260508013020 51 131 0.0 0.0 0.00 0.00 0.00 84 1011.6
20260508011528 52 131 0.0 0.0 0.00 0.00 0.00 83 1011.3
20260508010014 52 131 0.0 0.0 0.00 0.00 0.00 84 1011.3
20260508004524 52 131 0.0 0.0 0.00 0.00 0.00 83 1011.0
20260508003024 53 131 0.0 0.0 0.00 0.00 0.00 83 1010.9
20260508001527 54 131 0.0 0.0 0.00 0.00 0.00 80 1010.7